Location: Heidgraben
(53.7081°N, 9.6576°E)
Time: 07:47:45
(UTC+00:00)

Cosmos 2218 Rocket - Pass Details

Date: 05 July 2020
Orbit: 955 x 1007 km, 82.9° (Epoch: 15 August)

Event Time Altitude Azimuth Distance (km) Brightness Sun altitude
Exits shadow 22:50:54 18° 173° (S) 2,232 5.2 -13.2°
Maximum altitude 22:55:42 67° 95° (E) 1,078 4.2 -13.3°
Drops below altitude 10° 23:01:57 10° 15° (NNE) 2,752 7.6 -13.4°
Sets 23:04:28 0° 13° (NNE) 3,697 8.6 -13.5°
